Wind_Speed
10 8 7 8 13 10 14 16 15 12 12 12 12 14 13 13 16 14 16 15 15 15 14 14 13 13 13 14 15 17 18 20 19 19 16 20 25 22 21 20 16 20 19
17 15 12 9 12 14 13 14 14 12 12 11 13 12 10 8 9 12 14 13 12 14 14 15 16 16 16 14 15 15 16 18 17 17 17 21 23 22 19 16 17 14 14
26 23 20 14 16 19 19 17 9 12 14 15 12 10 12 11 11 8 9 9 9 9 10 10 11 12 14 15 14 14 14 15 15 13 13 17 21 19 13 14 12 10 13
31 32 27 24 18 21 23 21 20 15 16 17 17 15 17 17 16 14 13 9 6 5 5 6 9 10 11 14 17 16 15 14 14 11 10 13 15 16 15 11 9 11 14
38 36 35 28 26 24 26 28 25 21 19 19 20 20 18 12 17 17 10 8 7 3 4 6 8 10 12 11 12 12 14 15 14 12 8 9 10 9 9 9 8 10 4
44 44 41 40 36 32 32 31 33 32 26 23 24 19 20 17 15 13 11 9 4 3 1 3 8 10 8 9 9 11 11 8 11 13 11 5 5 7 6 2 3 7 5
53 52 51 52 47 41 38 39 35 39 35 31 30 28 25 22 19 18 16 10 10 6 9 6 5 8 8 7 9 11 9 7 7 6 7 6 1 1 7 5 5 9 11
61 58 55 54 55 50 42 42 44 41 40 41 38 34 32 31 32 30 23 18 15 16 17 15 10 11 10 11 12 12 11 11 5 4 6 6 3 4 10 11 13 10 15
65 60 57 53 51 50 50 50 48 48 48 44 40 41 41 38 37 35 33 29 20 24 24 19 25 17 15 18 17 18 8 8 13 11 8 9 10 12 12 15 17 17 18
66 65 65 60 59 58 61 65 64 60 58 54 48 48 44 46 48 43 37 35 37 29 23 22 27 34 28 25 23 23 21 19 16 11 12 17 15 17 17 18 17 21 22
73 67 69 67 67 63 62 69 71 67 63 65 62 61 61 60 56 52 51 42 42 39 32 30 30 32 34 31 27 27 31 21 26 28 18 24 16 19 16 22 21 21 20
80 75 74 74 71 68 68 72 72 70 71 70 71 72 63 64 59 57 57 51 50 46 41 45 48 46 40 37 37 36 35 33 34 35 33 30 26 24 29 31 29 24 25
89 83 82 80 80 79 73 74 79 78 78 76 75 76 70 67 65 60 61 61 56 56 52 53 58 58 53 51 46 43 43 40 40 42 38 39 37 32 28 34 35 34 38
98 94 90 89 83 84 82 80 82 84 84 79 81 79 78 77 72 67 67 70 69 66 69 68 66 65 64 62 57 53 50 48 47 46 51 48 48 47 48 43 40 43 46
98 102 99 98 95 89 87 83 87 84 88 88 84 81 77 76 81 79 76 77 82 80 77 76 74 72 70 70 71 68 63 61 62 59 59 62 59 58 59 61 61 53 46
104 103 106 108 103 101 98 96 92 89 90 91 93 91 89 93 86 84 87 84 86 88 88 86 81 81 82 83 81 80 80 81 76 74 72 68 73 66 62 66 68 66 68
111 110 110 108 113 110 106 108 105 101 96 98 99 100 100 99 101 100 100 96 94 96 98 94 92 92 92 94 93 90 86 84 83 77 72 70 70 73 77 71 71 72 77
117 116 115 115 113 115 119 114 115 115 110 106 105 105 105 106 107 108 110 108 107 103 103 104 103 101 99 101 99 93 88 88 87 80 77 75 77 84 92 83 79 77 85
121 122 121 120 119 120 119 123 124 121 122 121 115 115 117 116 115 115 115 114 113 112 111 112 111 111 108 108 107 101 102 103 106 106 104 101 102 100 97 97 87 90 96
115 121 125 125 125 125 125 124 125 129 128 126 128 128 126 124 124 123 125 125 124 122 120 120 120 117 116 110 112 113 111 111 113 113 110 106 106 109 113 111 111 110 109
119 119 120 125 129 130 131 130 130 130 132 132 132 134 136 134 133 130 127 130 131 129 129 130 130 131 134 132 131 131 132 132 129 128 126 124 126 126 124 127 124 124 123
119 122 123 123 123 125 130 133 134 135 135 136 136 139 139 140 142 143 141 140 139 139 140 141 141 142 141 143 141 138 138 134 134 133 133 135 135 134 133 133 137 136 135
115 115 120 124 126 126 127 128 131 136 139 140 141 141 143 143 146 148 150 149 149 149 151 150 148 149 149 149 149 147 144 143 143 144 147 148 148 150 151 151 151 153 154
123 122 119 117 115 119 126 130 132 134 135 137 139 142 144 147 148 150 153 155 156 157 158 158 161 163 163 161 159 159 157 159 160 160 161 162 161 159 158 157 156 156 156
120 121 121 120 119 117 118 120 123 128 133 138 139 140 141 143 145 149 152 154 156 158 159 160 161 161 161 163 163 165 168 169 169 169 169 168 166 165 164 164 163 161 159
108 111 112 113 113 113 112 111 112 114 117 121 125 131 136 140 144 146 149 151 152 154 154 155 155 155 155 156 158 159 160 162 163 163 161 161 161 160 160 160 161 159 158
Wind_Direction
219 206 204 198 179 156 161 149 137 127 118 123 116 104 96 104 106 93 88 90 89 88 81 77 78 72 67 64 64 64 62 65 70 76 98 113 106 92 96 82 82 76 73
208 219 206 214 213 211 182 183 169 154 145 147 143 140 120 116 105 96 99 91 85 89 92 89 84 79 72 69 64 62 60 63 67 75 90 112 111 100 95 93 79 79 81
227 217 221 215 214 225 212 210 211 210 183 165 153 171 150 148 131 127 104 97 93 86 86 87 83 76 65 64 59 67 62 64 64 74 82 109 117 107 103 105 78 94 119
225 228 223 220 231 231 226 222 215 238 214 192 179 177 173 158 149 131 128 122 111 117 99 90 83 83 79 83 73 70 75 74 63 60 87 106 111 105 113 99 86 129 127
231 225 225 222 231 233 231 236 235 227 229 227 196 185 176 163 167 164 147 138 119 82 114 96 89 72 74 76 86 81 72 56 55 55 72 96 113 112 106 106 121 139 148
233 231 231 232 219 235 251 248 240 235 223 226 216 217 204 196 197 187 184 174 135 174 134 99 60 46 45 54 48 54 70 72 54 45 42 67 114 144 139 174 144 181 213
240 240 239 241 239 226 241 253 253 239 233 229 223 219 235 239 234 225 224 217 221 234 222 261 322 336 13 32 30 24 36 46 55 42 47 36 13 211 218 220 218 236 239
242 241 243 237 240 237 242 249 246 244 239 234 229 229 233 237 238 246 238 233 245 250 238 231 247 295 284 319 336 334 348 359 9 350 343 332 310 261 244 243 244 243 238
238 236 234 231 230 235 244 249 249 249 243 238 238 236 238 246 243 241 245 248 239 240 248 251 244 263 283 278 289 307 286 318 341 328 313 311 284 272 270 265 241 243 246
235 235 233 227 237 236 243 246 246 248 248 245 244 243 248 247 249 248 242 243 238 242 249 258 255 255 279 274 277 280 294 278 287 290 308 319 289 273 269 265 267 263 251
237 235 229 229 234 236 238 242 245 245 245 246 249 253 260 257 253 250 247 240 245 244 248 250 262 271 274 277 270 288 267 268 280 303 290 294 297 296 294 301 288 271 261
235 233 234 233 235 236 241 241 245 246 247 251 251 253 254 255 250 258 249 245 244 247 246 261 272 275 275 268 265 264 278 285 276 286 290 289 287 280 275 290 290 282 287
234 231 234 238 238 236 240 246 244 246 244 252 256 256 255 250 248 254 251 247 248 248 246 262 273 277 275 278 269 268 276 276 274 262 280 274 270 279 275 276 272 281 283
232 233 231 234 236 240 239 237 242 245 246 246 250 253 252 252 249 253 253 255 254 251 256 263 267 271 273 277 275 268 268 272 275 274 280 283 266 277 290 284 278 284 272
237 235 234 234 235 234 235 236 239 241 244 247 251 246 247 249 246 247 251 258 256 255 257 263 265 266 266 271 273 275 271 270 271 273 278 282 283 272 280 287 292 286 277
239 239 238 237 236 236 235 237 237 239 241 244 242 242 243 245 246 247 250 252 255 254 255 259 261 262 265 269 269 272 273 275 269 273 275 279 284 275 278 283 288 284 289
239 239 239 240 239 239 240 237 239 240 241 243 246 247 244 245 247 250 252 251 258 261 256 257 259 261 264 267 270 273 272 274 268 268 272 277 277 268 279 282 283 279 282
239 239 240 241 241 240 241 241 239 239 240 240 243 245 248 250 251 253 255 255 257 256 257 256 258 259 263 265 266 265 265 265 268 264 267 269 273 275 275 281 279 275 274
239 240 241 241 241 242 242 242 243 243 241 242 242 242 245 246 247 249 251 253 254 255 255 255 256 259 259 261 262 260 263 261 266 266 263 263 265 267 267 275 271 272 275
241 241 242 243 243 243 243 244 244 244 245 245 244 244 244 246 248 248 249 251 253 253 255 255 256 254 255 255 257 261 260 261 265 266 268 268 269 269 269 269 271 271 274
243 243 243 242 243 244 245 245 245 246 246 247 246 247 245 245 247 249 250 252 251 253 254 257 257 257 257 262 262 263 263 265 268 266 266 266 267 269 269 267 268 271 274
245 245 245 246 246 247 247 247 248 248 248 248 249 250 250 250 249 249 251 252 254 253 255 256 257 258 259 260 262 264 264 262 263 263 264 266 267 268 267 266 268 269 271
251 249 247 245 246 248 248 248 249 250 250 251 251 251 252 253 252 252 253 254 255 257 255 256 257 257 259 260 260 261 262 262 264 264 266 268 269 269 269 270 271 272 274
252 254 254 253 251 249 248 249 250 251 252 252 252 253 254 254 255 256 256 256 257 257 258 259 258 260 262 261 260 261 263 265 267 266 267 267 269 269 269 270 271 272 273
252 253 255 255 256 255 254 254 253 252 252 253 254 255 256 256 257 257 258 258 259 260 261 261 261 262 263 262 262 263 264 266 268 268 267 268 268 269 269 270 270 270 270
251 252 254 256 257 258 259 259 259 258 258 257 256 255 256 258 259 260 260 261 261 261 262 263 264 264 265 265 265 266 266 267 267 268 269 269 269 269 270 270 271 271 271
Height
11017 11019 11021 11022 11022 11022 11023 11022 11023 11024 11023 11022 11022 11021 11021 11019 11017 11017 11017 11015 11014 11013 11013 11012 11011 11010 11009 11008 11007 11005 11003 11003 11002 11002 11001 11000 11000 11000 11000 11001 11001 11000 10998
11013 11016 11018 11020 11021 11022 11022 11024 11025 11023 11023 11023 11021 11021 11022 11022 11020 11019 11018 11017 11017 11015 11015 11014 11013 11012 11011 11010 11009 11009 11007 11006 11006 11006 11005 11004 11004 11005 11006 11006 11006 11005 11004
11007 11011 11015 11016 11018 11021 11022 11023 11025 11025 11022 11022 11021 11021 11021 11021 11020 11020 11021 11019 11018 11017 11017 11016 11014 11013 11013 11013 11012 11011 11010 11009 11009 11009 11009 11008 11007 11008 11010 11011 11011 11010 11009
11002 11005 11008 11011 11013 11016 11018 11020 11019 11020 11021 11021 11021 11020 11021 11019 11018 11018 11019 11019 11019 11019 11018 11018 11017 11016 11015 11014 11014 11013 11011 11011 11011 11011 11012 11012 11012 11012 11013 11014 11015 11015 11014
10992 10998 11000 11004 11008 11009 11013 11015 11016 11015 11018 11019 11018 11021 11021 11020 11018 11017 11017 11018 11019 11020 11020 11018 11017 11017 11015 11015 11014 11014 11014 11013 11013 11014 11014 11015 11016 11017 11017 11018 11019 11019 11019
10982 10987 10991 10995 10996 11002 11005 11008 11010 11011 11011 11014 11016 11016 11016 11016 11017 11017 11016 11017 11018 11018 11020 11020 11019 11018 11018 11017 11017 11016 11016 11016 11015 11015 11015 11016 11017 11018 11019 11020 11020 11021 11020
10970 10976 10981 10984 10988 10990 10995 10998 11001 11004 11005 11006 11009 11011 11012 11013 11014 11015 11015 11014 11015 11015 11016 11017 11018 11018 11018 11018 11017 11017 11016 11016 11016 11016 11016 11016 11017 11018 11019 11020 11021 11022 11020
10956 10962 10967 10972 10975 10980 10984 10987 10990 10995 10997 10998 10999 11002 11005 11006 11008 11009 11010 11011 11012 11013 11013 11013 11013 11015 11016 11016 11017 11016 11016 11015 11015 11015 11015 11016 11016 11015 11015 11017 11019 11020 11020
10941 10948 10954 10958 10963 10967 10971 10974 10977 10983 10987 10989 10991 10993 10994 10996 10998 10999 11002 11003 11004 11006 11007 11007 11007 11008 11010 11013 11014 11015 11014 11013 11013 11014 11013 11013 11014 11013 11013 11012 11013 11014 11016
10927 10932 10939 10944 10949 10954 10959 10960 10964 10969 10974 10977 10980 10982 10983 10985 10988 10990 10992 10994 10995 10995 10997 10999 11001 11003 11002 11003 11005 11007 11009 11008 11008 11011 11011 11011 11008 11008 11008 11008 11008 11008 11008
10910 10916 10921 10926 10930 10937 10942 10943 10946 10954 10959 10962 10966 10969 10971 10973 10975 10978 10981 10981 10984 10985 10987 10988 10990 10992 10994 10994 10996 10997 10997 11000 11001 11002 11004 11005 11005 11004 11003 11003 11004 11003 11002
10891 10898 10903 10909 10914 10920 10925 10928 10930 10939 10943 10947 10950 10954 10957 10959 10961 10963 10967 10969 10970 10972 10973 10974 10977 10980 10980 10983 10984 10986 10987 10989 10990 10991 10993 10995 10997 10998 10998 10997 10996 10995 10996
10869 10878 10883 10890 10896 10902 10907 10911 10915 10918 10924 10928 10932 10935 10939 10943 10944 10948 10951 10953 10956 10958 10958 10959 10961 10964 10966 10969 10970 10971 10973 10974 10976 10978 10980 10981 10983 10985 10985 10988 10987 10986 10985
10849 10855 10862 10869 10875 10880 10887 10892 10896 10899 10903 10907 10914 10918 10922 10926 10928 10931 10934 10937 10938 10940 10943 10944 10945 10946 10950 10951 10954 10956 10957 10959 10960 10962 10964 10967 10969 10968 10970 10971 10974 10974 10974
10825 10832 10839 10844 10852 10860 10865 10870 10874 10880 10885 10887 10893 10899 10902 10903 10909 10911 10914 10918 10920 10922 10924 10925 10927 10930 10930 10932 10935 10938 10939 10941 10943 10943 10944 10947 10949 10950 10951 10952 10954 10956 10957
10800 10808 10815 10821 10828 10836 10842 10847 10851 10856 10862 10866 10871 10876 10880 10883 10885 10888 10891 10895 10898 10902 10904 10906 10908 10910 10911 10912 10916 10919 10921 10924 10922 10924 10924 10924 10925 10927 10931 10930 10932 10932 10935
10771 10780 10787 10794 10803 10810 10816 10822 10827 10834 10838 10842 10847 10851 10854 10858 10860 10864 10867 10870 10873 10876 10879 10882 10884 10887 10889 10889 10891 10894 10896 10900 10900 10901 10903 10902 10903 10904 10905 10908 10909 10910 10910
10743 10750 10758 10766 10773 10781 10788 10793 10798 10804 10811 10815 10820 10825 10828 10831 10835 10839 10842 10845 10848 10850 10853 10854 10856 10859 10861 10863 10864 10868 10870 10871 10877 10880 10881 10882 10883 10882 10880 10884 10884 10885 10886
10712 10720 10728 10736 10744 10751 10757 10764 10770 10774 10780 10787 10792 10795 10799 10803 10806 10809 10812 10814 10817 10820 10824 10826 10830 10833 10834 10836 10838 10840 10843 10845 10847 10851 10855 10857 10860 10863 10863 10860 10861 10862 10863
10683 10691 10698 10705 10712 10719 10725 10733 10738 10745 10750 10755 10760 10762 10766 10770 10773 10777 10780 10782 10786 10789 10792 10795 10797 10799 10802 10805 10808 10810 10811 10814 10817 10820 10820 10820 10823 10825 10827 10830 10830 10832 10834
10652 10658 10664 10671 10679 10685 10691 10698 10704 10711 10715 10721 10727 10729 10732 10736 10740 10742 10746 10748 10750 10755 10757 10761 10765 10767 10767 10769 10771 10775 10777 10780 10780 10782 10784 10788 10790 10792 10795 10794 10795 10795 10796
10619 10626 10634 10641 10648 10654 10660 10665 10670 10677 10682 10687 10691 10695 10700 10703 10706 10710 10711 10714 10716 10718 10718 10720 10723 10725 10727 10731 10734 10738 10739 10740 10743 10743 10745 10747 10749 10749 10750 10750 10751 10754 10755
10582 10591 10599 10607 10613 10618 10624 10631 10635 10638 10643 10649 10654 10660 10663 10667 10671 10672 10674 10675 10677 10679 10681 10683 10685 10685 10686 10688 10693 10696 10699 10699 10701 10705 10705 10705 10703 10702 10702 10704 10704 10705 10706
10553 10558 10562 10569 10577 10584 10589 10594 10598 10602 10606 10611 10615 10621 10626 10628 10630 10631 10630 10631 10632 10633 10635 10638 10641 10643 10645 10647 10650 10653 10658 10658 10657 10657 10655 10656 10656 10655 10653 10654 10655 10656 10656
10519 10525 10529 10534 10540 10544 10551 10555 10561 10566 10569 10572 10575 10579 10582 10586 10588 10588 10589 10591 10591 10590 10591 10592 10594 10600 10605 10604 10602 10606 10606 10606 10606 10606 10607 10604 10603 10603 10604 10603 10603 10605 10609
10490 10494 10499 10502 10506 10511 10515 10521 10526 10530 10531 10535 10539 10543 10545 10547 10547 10547 10547 10545 10543 10541 10541 10544 10548 10554 10557 10557 10556 10557 10556 10553 10550 10549 10553 10553 10553 10552 10551 10550 10548 10551 10553